Location: Altmatt
(47.1333°N, 8.7000°E)
Time: 18:11:36
(UTC+00:00)

Thor Agena Rocket - Pass Details

Date: 13 July 2020
Orbit: 759 x 808 km, 99.0° (Epoch: 12 August)

Event Time Altitude Azimuth Distance (km) Brightness Sun altitude
Rises 21:31:09 0° 23° (NNE) 3,247 7.3 -16.1°
Reaches altitude 10° 21:33:42 10° 33° (NNE) 2,310 6.4 -16.3°
Maximum altitude 21:38:16 33° 96° (E) 1,271 4.3 -16.7°
Enters shadow 21:39:54 27° 132° (SE) 1,446 4.4 -16.8°
